Zurück zum Katalog

FENGYUN 1C DEB

AktivSSO
NORAD 31030·DEBRIS·🇨🇳 China

Gestartet May 10, 1999 von Taiyuan Satellite Launch Center

Loading…

Nächste Überflüge (nächste 24 Stunden)

TLE

AktuellSource: Space-Track

Epoche: Sep 14, 2026, 10:40 UTC

1 31030U 99025BDY 26257.44455429  .00001110  00000-0  49488-3 0  9990
2 31030  98.7427 323.2612 0026262   6.3448   6.9355 14.24652442  6253

Verfolge FENGYUN 1C DEB in Echtzeit mit AllMySat

Download on the App Store